| time (UTC) | temp F | wind direction | speed MPH | gust MPH | rain 1hr in | rain 24hr in | rain mn in | humidity % | barometer mb |
| 20260905073325 | 57 | 302 | 0.0 | 0.0 | 0.00 | 0.18 | 0.00 | 97 | 1012.9 |
| 20260905072324 | 57 | 302 | 0.0 | 0.0 | 0.00 | 0.18 | 0.00 | 97 | 1012.9 |
| 20260905071322 | 56 | 302 | 0.0 | 0.0 | 0.00 | 0.18 | 0.00 | 97 | 1012.9 |
| 20260905070324 | 57 | 302 | 0.0 | 0.0 | 0.00 | 0.18 | 0.00 | 97 | 1012.9 |
| 20260905065343 | 57 | 302 | 0.0 | 0.0 | 0.00 | 0.18 | 0.18 | 97 | 1012.9 |
| 20260905064322 | 57 | 302 | 0.0 | 0.0 | 0.00 | 0.18 | 0.18 | 96 | 1012.9 |
| 20260905063322 | 57 | 302 | 0.0 | 0.0 | 0.00 | 0.18 | 0.18 | 96 | 1012.9 |
| 20260905062321 | 57 | 302 | 0.0 | 0.0 | 0.00 | 0.18 | 0.18 | 96 | 1012.8 |
| 20260905061322 | 57 | 302 | 0.0 | 0.0 | 0.00 | 0.18 | 0.18 | 96 | 1012.8 |
| 20260905060345 | 57 | 302 | 0.0 | 0.0 | 0.00 | 0.18 | 0.18 | 96 | 1012.8 |
| 20260905055323 | 57 | 302 | 0.0 | 0.0 | 0.00 | 0.18 | 0.18 | 96 | 1012.9 |
| 20260905054322 | 57 | 302 | 0.0 | 0.0 | 0.00 | 0.18 | 0.18 | 96 | 1012.9 |
| 20260905053320 | 58 | 302 | 0.0 | 0.0 | 0.00 | 0.18 | 0.18 | 96 | 1012.9 |
| 20260905052323 | 58 | 302 | 0.0 | 0.0 | 0.00 | 0.18 | 0.18 | 96 | 1012.8 |
| 20260905051323 | 58 | 302 | 0.0 | 0.0 | 0.00 | 0.18 | 0.18 | 96 | 1012.6 |
| 20260905050321 | 58 | 302 | 0.0 | 0.0 | 0.00 | 0.18 | 0.18 | 95 | 1012.6 |
| 20260905045320 | 58 | 302 | 0.0 | 0.0 | 0.00 | 0.18 | 0.18 | 95 | 1012.7 |
| 20260905044319 | 58 | 302 | 0.0 | 0.0 | 0.00 | 0.18 | 0.18 | 95 | 1012.6 |
| 20260905043339 | 58 | 302 | 0.0 | 0.0 | 0.00 | 0.18 | 0.18 | 95 | 1012.6 |
| 20260905042318 | 58 | 302 | 0.0 | 0.0 | 0.00 | 0.18 | 0.18 | 95 | 1012.5 |
| 20260905041318 | 58 | 302 | 0.0 | 0.0 | 0.00 | 0.18 | 0.18 | 95 | 1012.4 |
| 20260905040317 | 58 | 302 | 0.0 | 0.0 | 0.00 | 0.18 | 0.18 | 95 | 1012.4 |
| 20260905035337 | 58 | 302 | 0.0 | 0.0 | 0.00 | 0.18 | 0.18 | 95 | 1012.2 |
| 20260905034315 | 58 | 302 | 0.0 | 0.0 | 0.00 | 0.18 | 0.18 | 95 | 1011.9 |
| 20260905033315 | 59 | 302 | 0.0 | 0.0 | 0.00 | 0.18 | 0.18 | 95 | 1011.9 |
| 20260905032313 | 59 | 302 | 0.0 | 0.0 | 0.00 | 0.18 | 0.18 | 95 | 1011.8 |
| 20260905031332 | 59 | 302 | 0.0 | 0.0 | 0.00 | 0.18 | 0.18 | 94 | 1011.4 |
| 20260905030312 | 58 | 302 | 0.0 | 0.0 | 0.00 | 0.18 | 0.18 | 94 | 1011.4 |
| 20260905025311 | 58 | 302 | 0.0 | 0.0 | 0.01 | 0.18 | 0.18 | 93 | 1011.4 |
| 20260905024311 | 59 | 302 | 0.0 | 0.0 | 0.01 | 0.18 | 0.18 | 92 | 1011.3 |
| 20260905023316 | 59 | 302 | 0.0 | 0.0 | 0.01 | 0.18 | 0.18 | 92 | 1011.3 |
| 20260905022316 | 59 | 302 | 0.0 | 0.0 | 0.03 | 0.18 | 0.18 | 91 | 1011.3 |
| 20260905021315 | 60 | 309 | 0.0 | 0.0 | 0.04 | 0.18 | 0.18 | 91 | 1011.3 |
| 20260905020315 | 60 | 309 | 0.0 | 0.0 | 0.04 | 0.18 | 0.18 | 90 | 1011.3 |
| 20260905015333 | 60 | 309 | 0.0 | 0.0 | 0.03 | 0.17 | 0.17 | 89 | 1011.0 |
| 20260905014313 | 61 | 309 | 0.0 | 4.0 | 0.03 | 0.17 | 0.17 | 87 | 1011.0 |
| 20260905013330 | 61 | 296 | 0.0 | 7.0 | 0.03 | 0.17 | 0.17 | 84 | 1011.0 |
| 20260905012328 | 63 | 268 | 3.0 | 10.0 | 0.01 | 0.15 | 0.15 | 79 | 1010.9 |
| 20260905011330 | 64 | 270 | 0.0 | 3.0 | 0.01 | 0.14 | 0.14 | 79 | 1010.6 |
| 20260905010329 | 64 | 219 | 0.0 | 0.0 | 0.04 | 0.14 | 0.14 | 81 | 1010.6 |
| 20260905005327 | 65 | 219 | 0.0 | 0.0 | 0.04 | 0.14 | 0.14 | 78 | 1010.4 |
| 20260905004327 | 65 | 219 | 0.0 | 0.0 | 0.04 | 0.14 | 0.14 | 79 | 1010.3 |
| 20260905003328 | 63 | 219 | 0.0 | 0.0 | 0.04 | 0.14 | 0.14 | 81 | 1010.3 |
| 20260905002328 | 63 | 219 | 0.0 | 6.0 | 0.04 | 0.14 | 0.14 | 84 | 1010.3 |
| 20260905001312 | 65 | 256 | 4.0 | 14.0 | 0.03 | 0.13 | 0.13 | 76 | 1009.8 |
| 20260905000313 | 67 | 319 | 0.0 | 3.0 | 0.00 | 0.10 | 0.10 | 69 | 1009.8 |
| 20260904235314 | 68 | 360 | 1.0 | 5.0 | 0.00 | 0.10 | 0.10 | 66 | 1009.5 |
| 20260904234312 | 67 | 271 | 0.0 | 0.0 | 0.00 | 0.10 | 0.10 | 65 | 1009.7 |
| 20260904233312 | 66 | 271 | 0.0 | 6.0 | 0.00 | 0.10 | 0.10 | 73 | 1009.7 |
| 20260904232313 | 65 | 250 | 2.0 | 5.0 | 0.01 | 0.10 | 0.10 | 69 | 1009.7 |
| 20260904231352 | 65 | 246 | 0.0 | 10.0 | 0.01 | 0.10 | 0.10 | 71 | 1009.3 |
| 20260904230330 | 66 | 193 | 0.0 | 0.0 | 0.01 | 0.10 | 0.10 | 71 | 1009.3 |
| 20260904225329 | 66 | 193 | 0.0 | 0.0 | 0.01 | 0.11 | 0.10 | 69 | 1009.3 |
| 20260904224327 | 66 | 192 | 0.0 | 1.0 | 0.01 | 0.11 | 0.10 | 71 | 1009.4 |
| 20260904223349 | 65 | 186 | 0.0 | 13.0 | 0.01 | 0.11 | 0.10 | 75 | 1009.4 |
| 20260904222326 | 69 | 151 | 2.0 | 11.0 | 0.00 | 0.10 | 0.09 | 61 | 1008.9 |
| 20260904221327 | 70 | 200 | 1.0 | 10.0 | 0.00 | 0.10 | 0.09 | 56 | 1008.9 |
| 20260904220328 | 69 | 123 | 1.0 | 7.0 | 0.00 | 0.10 | 0.09 | 52 | 1008.9 |
| 20260904215348 | 69 | 178 | 0.0 | 4.0 | 0.00 | 0.13 | 0.09 | 54 | 1008.9 |
| 20260904214326 | 69 | 129 | 0.0 | 5.0 | 0.00 | 0.13 | 0.09 | 55 | 1008.8 |
| 20260904213325 | 69 | 173 | 1.0 | 6.0 | 0.00 | 0.13 | 0.09 | 54 | 1008.8 |
| 20260904212323 | 69 | 217 | 2.0 | 5.0 | 0.00 | 0.13 | 0.09 | 54 | 1008.9 |
| 20260904211325 | 67 | 250 | 4.0 | 11.0 | 0.00 | 0.13 | 0.09 | 56 | 1009.0 |
| 20260904210327 | 66 | 211 | 0.0 | 6.0 | 0.00 | 0.13 | 0.09 | 65 | 1009.0 |
| 20260904205327 | 65 | 242 | 1.0 | 7.0 | 0.00 | 0.13 | 0.09 | 72 | 1008.9 |
| 20260904204324 | 65 | 256 | 1.0 | 6.0 | 0.00 | 0.13 | 0.09 | 70 | 1009.0 |
| 20260904203346 | 67 | 269 | 3.0 | 10.0 | 0.00 | 0.13 | 0.09 | 65 | 1009.0 |
| 20260904202323 | 68 | 105 | 4.0 | 12.0 | 0.00 | 0.13 | 0.09 | 54 | 1008.8 |
| 20260904201322 | 69 | 182 | 4.0 | 11.0 | 0.00 | 0.13 | 0.09 | 53 | 1008.8 |
| 20260904200321 | 70 | 223 | 2.0 | 13.0 | 0.00 | 0.13 | 0.09 | 53 | 1008.8 |
| 20260904195321 | 70 | 200 | 2.0 | 11.0 | 0.00 | 0.13 | 0.09 | 54 | 1008.8 |
| 20260904194320 | 68 | 196 | 3.0 | 7.0 | 0.00 | 0.13 | 0.09 | 59 | 1008.9 |
| 20260904193321 | 68 | 193 | 1.0 | 7.0 | 0.00 | 0.13 | 0.09 | 60 | 1008.9 |
| 20260904192319 | 68 | 197 | 0.0 | 6.0 | 0.00 | 0.13 | 0.09 | 62 | 1009.1 |
| 20260904191316 | 67 | 240 | 0.0 | 5.0 | 0.00 | 0.13 | 0.09 | 63 | 1009.3 |
| 20260904190315 | 66 | 112 | 1.0 | 7.0 | 0.00 | 0.13 | 0.09 | 63 | 1009.3 |
| 20260904185335 | 67 | 128 | 4.0 | 8.0 | 0.00 | 0.13 | 0.09 | 63 | 1009.2 |
| 20260904184313 | 66 | 164 | 2.0 | 7.0 | 0.00 | 0.13 | 0.09 | 66 | 1009.3 |
| 20260904183314 | 65 | 145 | 4.0 | 15.0 | 0.00 | 0.13 | 0.09 | 65 | 1009.3 |
| 20260904182313 | 65 | 96 | 1.0 | 12.0 | 0.00 | 0.13 | 0.09 | 71 | 1009.2 |
| 20260904181317 | 63 | 186 | 0.0 | 7.0 | 0.00 | 0.13 | 0.09 | 72 | 1009.2 |
| 20260904180337 | 62 | 156 | 0.0 | 5.0 | 0.00 | 0.13 | 0.09 | 74 | 1009.2 |
| 20260904175314 | 62 | 134 | 0.0 | 7.0 | 0.00 | 0.13 | 0.09 | 74 | 1009.1 |
| 20260904174313 | 62 | 140 | 1.0 | 8.0 | 0.00 | 0.13 | 0.09 | 75 | 1008.9 |
| 20260904173312 | 61 | 159 | 0.0 | 7.0 | 0.00 | 0.13 | 0.09 | 76 | 1008.9 |
| 20260904172331 | 60 | 147 | 0.0 | 8.0 | 0.00 | 0.13 | 0.09 | 78 | 1008.8 |
| 20260904171312 | 60 | 148 | 0.0 | 6.0 | 0.00 | 0.13 | 0.09 | 78 | 1008.8 |
| 20260904170312 | 60 | 101 | 0.0 | 6.0 | 0.00 | 0.13 | 0.09 | 79 | 1008.8 |
| 20260904165312 | 60 | 115 | 2.0 | 7.0 | 0.00 | 0.13 | 0.09 | 79 | 1008.7 |
| 20260904164331 | 60 | 128 | 0.0 | 4.0 | 0.00 | 0.13 | 0.09 | 83 | 1008.7 |
| 20260904163331 | 59 | 110 | 0.0 | 0.0 | 0.00 | 0.13 | 0.09 | 86 | 1008.7 |
| 20260904162331 | 58 | 110 | 0.0 | 0.0 | 0.00 | 0.13 | 0.09 | 89 | 1008.6 |
| 20260904161329 | 58 | 110 | 0.0 | 0.0 | 0.00 | 0.13 | 0.09 | 91 | 1008.5 |
| 20260904160331 | 57 | 110 | 0.0 | 0.0 | 0.00 | 0.13 | 0.09 | 92 | 1008.5 |
| 20260904155348 | 57 | 110 | 0.0 | 0.0 | 0.00 | 0.13 | 0.09 | 96 | 1008.5 |
| 20260904154327 | 56 | 110 | 0.0 | 0.0 | 0.00 | 0.13 | 0.09 | 97 | 1008.4 |
| 20260904153312 | 56 | 110 | 0.0 | 0.0 | 0.00 | 0.13 | 0.09 | 97 | 1008.4 |
| 20260904152312 | 56 | 110 | 0.0 | 0.0 | 0.00 | 0.13 | 0.09 | 98 | 1008.2 |
| 20260904151329 | 56 | 110 | 0.0 | 0.0 | 0.00 | 0.13 | 0.09 | 98 | 1007.9 |
| 20260904150327 | 55 | 110 | 0.0 | 1.0 | 0.00 | 0.13 | 0.09 | 98 | 1007.9 |
| 20260904145326 | 55 | 111 | 0.0 | 0.0 | 0.00 | 0.13 | 0.09 | 98 | 1007.8 |
| 20260904144326 | 55 | 111 | 0.0 | 0.0 | 0.00 | 0.13 | 0.09 | 98 | 1007.7 |
| 20260904143326 | 54 | 111 | 0.0 | 0.0 | 0.00 | 0.13 | 0.09 | 98 | 1007.7 |
| 20260904142325 | 54 | 111 | 0.0 | 0.0 | 0.00 | 0.13 | 0.09 | 98 | 1007.6 |
| 20260904141324 | 54 | 111 | 0.0 | 0.0 | 0.00 | 0.13 | 0.09 | 98 | 1007.4 |
| 20260904140323 | 54 | 111 | 0.0 | 0.0 | 0.00 | 0.13 | 0.09 | 98 | 1007.4 |
| 20260904135323 | 54 | 111 | 0.0 | 0.0 | 0.00 | 0.13 | 0.09 | 98 | 1007.3 |
| 20260904134342 | 54 | 111 | 0.0 | 0.0 | 0.00 | 0.13 | 0.09 | 98 | 1007.2 |
| 20260904133320 | 54 | 111 | 0.0 | 0.0 | 0.00 | 0.13 | 0.09 | 98 | 1007.2 |
| 20260904132338 | 54 | 111 | 0.0 | 0.0 | 0.00 | 0.13 | 0.09 | 97 | 1007.2 |
| 20260904131316 | 54 | 111 | 0.0 | 0.0 | 0.00 | 0.13 | 0.09 | 97 | 1007.2 |
| 20260904130314 | 54 | 111 | 0.0 | 0.0 | 0.00 | 0.13 | 0.09 | 97 | 1007.2 |
| 20260904125313 | 54 | 111 | 0.0 | 0.0 | 0.00 | 0.15 | 0.09 | 97 | 1007.2 |
| 20260904124317 | 54 | 111 | 0.0 | 0.0 | 0.00 | 0.15 | 0.09 | 97 | 1007.1 |
| 20260904123317 | 54 | 111 | 0.0 | 0.0 | 0.01 | 0.15 | 0.09 | 97 | 1007.1 |
| 20260904122338 | 54 | 112 | 0.0 | 0.0 | 0.02 | 0.15 | 0.09 | 96 | 1007.1 |
| 20260904121316 | 54 | 112 | 0.0 | 0.0 | 0.02 | 0.15 | 0.09 | 96 | 1007.1 |
| 20260904120317 | 54 | 112 | 0.0 | 0.0 | 0.02 | 0.15 | 0.09 | 96 | 1007.1 |
| 20260904115317 | 54 | 112 | 0.0 | 0.0 | 0.02 | 0.15 | 0.09 | 96 | 1007.1 |
| 20260904114317 | 55 | 112 | 0.0 | 0.0 | 0.02 | 0.15 | 0.09 | 96 | 1006.9 |
| 20260904113315 | 55 | 112 | 0.0 | 0.0 | 0.02 | 0.14 | 0.08 | 96 | 1006.9 |
| 20260904112315 | 55 | 112 | 0.0 | 0.0 | 0.02 | 0.13 | 0.07 | 96 | 1006.7 |
| 20260904111334 | 55 | 112 | 0.0 | 0.0 | 0.04 | 0.13 | 0.07 | 95 | 1006.7 |
| 20260904110313 | 55 | 112 | 0.0 | 0.0 | 0.05 | 0.13 | 0.07 | 95 | 1006.7 |
| 20260904105313 | 55 | 112 | 0.0 | 0.0 | 0.06 | 0.13 | 0.07 | 94 | 1006.7 |
| 20260904104333 | 55 | 112 | 0.0 | 0.0 | 0.06 | 0.13 | 0.07 | 94 | 1006.7 |
| 20260904103313 | 55 | 112 | 0.0 | 0.0 | 0.05 | 0.12 | 0.06 | 93 | 1006.7 |
| 20260904102312 | 55 | 112 | 0.0 | 0.0 | 0.03 | 0.10 | 0.04 | 93 | 1006.6 |
| 20260904101311 | 55 | 112 | 0.0 | 0.0 | 0.02 | 0.09 | 0.03 | 92 | 1006.4 |
| 20260904100317 | 55 | 112 | 0.0 | 0.0 | 0.01 | 0.08 | 0.02 | 92 | 1006.4 |
| 20260904095334 | 55 | 112 | 0.0 | 0.0 | 0.01 | 0.08 | 0.01 | 92 | 1006.3 |
| 20260904094312 | 55 | 112 | 0.0 | 0.0 | 0.01 | 0.08 | 0.01 | 91 | 1006.3 |
| 20260904093313 | 55 | 112 | 0.0 | 0.0 | 0.01 | 0.08 | 0.01 | 90 | 1006.3 |
| 20260904092311 | 56 | 129 | 0.0 | 0.0 | 0.01 | 0.08 | 0.01 | 90 | 1006.2 |
| 20260904091330 | 56 | 129 | 0.0 | 0.0 | 0.01 | 0.08 | 0.01 | 89 | 1006.2 |
| 20260904090352 | 56 | 129 | 0.0 | 0.0 | 0.01 | 0.08 | 0.01 | 86 | 1006.2 |
| 20260904085328 | 56 | 129 | 0.0 | 0.0 | 0.00 | 0.07 | 0.00 | 85 | 1006.3 |
| 20260904084327 | 56 | 129 | 0.0 | 0.0 | 0.00 | 0.07 | 0.00 | 83 | 1006.2 |
| 20260904083327 | 57 | 129 | 0.0 | 0.0 | 0.00 | 0.07 | 0.00 | 81 | 1006.2 |
| 20260904082326 | 57 | 129 | 0.0 | 0.0 | 0.00 | 0.07 | 0.00 | 80 | 1006.2 |
| 20260904081326 | 57 | 129 | 0.0 | 2.0 | 0.00 | 0.07 | 0.00 | 78 | 1006.2 |
| 20260904080326 | 57 | 129 | 0.0 | 0.0 | 0.00 | 0.07 | 0.00 | 83 | 1006.2 |
| 20260904075345 | 57 | 129 | 0.0 | 0.0 | 0.00 | 0.07 | 0.00 | 84 | 1006.1 |
| 20260904074324 | 57 | 129 | 0.0 | 0.0 | 0.00 | 0.07 | 0.00 | 82 | 1006.1 |